| time (UTC) | temp F | wind direction | speed MPH | gust MPH | rain 1hr in | rain 24hr in | rain mn in | humidity % | barometer mb |
| 20260504081709 | 70 | 269 | 2.0 | 6.0 | 0.00 | 0.00 | 0.00 | 41 | 997.8 |
| 20260504081209 | 70 | 221 | 4.0 | 8.0 | 0.00 | 0.00 | 0.00 | 41 | 997.8 |
| 20260504080708 | 70 | 174 | 2.0 | 7.0 | 0.00 | 0.00 | 0.00 | 42 | 997.7 |
| 20260504080208 | 70 | 241 | 7.0 | 8.0 | 0.00 | 0.00 | 0.00 | 41 | 997.6 |
| 20260504070200 | 67 | 242 | 2.0 | 7.0 | 0.00 | 0.00 | 0.00 | 46 | 997.5 |
| 20260504060153 | 59 | 143 | 1.0 | 5.0 | 0.00 | 0.00 | 0.00 | 57 | 997.5 |
| 20260504050648 | 55 | 144 | 8.0 | 8.0 | 0.00 | 0.00 | 0.00 | 59 | 997.3 |
| 20260504050148 | 55 | 140 | 6.0 | 8.0 | 0.00 | 0.00 | 0.00 | 59 | 997.3 |
| 20260504045647 | 55 | 127 | 5.0 | 8.0 | 0.00 | 0.00 | 0.00 | 59 | 997.3 |
| 20260504045147 | 55 | 98 | 3.0 | 5.0 | 0.00 | 0.00 | 0.00 | 60 | 997.2 |
| 20260504044646 | 55 | 124 | 5.0 | 7.0 | 0.00 | 0.00 | 0.00 | 58 | 997.3 |
| 20260504044146 | 56 | 140 | 7.0 | 8.0 | 0.00 | 0.00 | 0.00 | 56 | 997.2 |
| 20260504043645 | 56 | 134 | 6.0 | 8.0 | 0.00 | 0.00 | 0.00 | 54 | 997.1 |
| 20260504043144 | 56 | 127 | 6.0 | 7.0 | 0.00 | 0.00 | 0.00 | 54 | 997.1 |
| 20260504042644 | 56 | 109 | 5.0 | 6.0 | 0.00 | 0.00 | 0.00 | 55 | 997.3 |
| 20260504042143 | 56 | 103 | 4.0 | 6.0 | 0.00 | 0.00 | 0.00 | 55 | 997.3 |
| 20260504041642 | 57 | 119 | 3.0 | 5.0 | 0.00 | 0.00 | 0.00 | 53 | 997.4 |
| 20260504041141 | 57 | 89 | 1.0 | 2.0 | 0.00 | 0.00 | 0.00 | 53 | 997.3 |
| 20260504040641 | 57 | 94 | 2.0 | 2.0 | 0.00 | 0.00 | 0.00 | 52 | 997.2 |
| 20260504040140 | 57 | 117 | 1.0 | 3.0 | 0.00 | 0.00 | 0.00 | 51 | 997.3 |
| 20260504035640 | 57 | 163 | 1.0 | 1.0 | 0.00 | 0.00 | 0.00 | 51 | 997.2 |
| 20260504035140 | 57 | 163 | 0.0 | 0.0 | 0.00 | 0.00 | 0.00 | 53 | 997.2 |
| 20260504034639 | 56 | 313 | 0.0 | 1.0 | 0.00 | 0.00 | 0.00 | 53 | 997.3 |
| 20260504034138 | 57 | 326 | 3.0 | 5.0 | 0.00 | 0.00 | 0.00 | 53 | 997.3 |
| 20260504033638 | 57 | 138 | 0.0 | 0.0 | 0.00 | 0.00 | 0.00 | 53 | 997.2 |
| 20260504033137 | 57 | 160 | 1.0 | 2.0 | 0.00 | 0.00 | 0.00 | 52 | 997.1 |
| 20260504032637 | 57 | 181 | 0.0 | 2.0 | 0.00 | 0.00 | 0.00 | 52 | 997.0 |
| 20260504032136 | 57 | 149 | 3.0 | 5.0 | 0.00 | 0.00 | 0.00 | 52 | 996.7 |
| 20260504031636 | 57 | 198 | 1.0 | 2.0 | 0.00 | 0.00 | 0.00 | 52 | 997.0 |
| 20260504031136 | 57 | 140 | 0.0 | 5.0 | 0.00 | 0.00 | 0.00 | 52 | 996.8 |
| 20260504030635 | 57 | 154 | 6.0 | 9.0 | 0.00 | 0.00 | 0.00 | 52 | 996.4 |
| 20260504030135 | 57 | 144 | 7.0 | 10.0 | 0.00 | 0.00 | 0.00 | 52 | 996.5 |
| 20260504025635 | 56 | 170 | 5.0 | 10.0 | 0.00 | 0.00 | 0.00 | 53 | 996.5 |
| 20260504025134 | 56 | 177 | 6.0 | 9.0 | 0.00 | 0.00 | 0.00 | 54 | 996.3 |
| 20260504024633 | 57 | 132 | 6.0 | 10.0 | 0.00 | 0.00 | 0.00 | 53 | 996.4 |
| 20260504024133 | 57 | 144 | 7.0 | 11.0 | 0.00 | 0.00 | 0.00 | 53 | 996.4 |
| 20260504023633 | 57 | 162 | 7.0 | 11.0 | 0.00 | 0.00 | 0.00 | 52 | 996.4 |
| 20260504023132 | 57 | 151 | 8.0 | 13.0 | 0.00 | 0.00 | 0.00 | 52 | 996.2 |
| 20260504022631 | 57 | 136 | 11.0 | 11.0 | 0.00 | 0.00 | 0.00 | 52 | 996.4 |
| 20260504022131 | 57 | 144 | 9.0 | 11.0 | 0.00 | 0.00 | 0.00 | 52 | 996.4 |
| 20260504021621 | 57 | 162 | 9.0 | 13.0 | 0.00 | 0.00 | 0.00 | 51 | 996.5 |
| 20260504021120 | 58 | 149 | 8.0 | 10.0 | 0.00 | 0.00 | 0.00 | 51 | 996.6 |
| 20260504020610 | 58 | 145 | 8.0 | 10.0 | 0.00 | 0.00 | 0.00 | 50 | 996.4 |
| 20260504020110 | 58 | 164 | 9.0 | 10.0 | 0.00 | 0.00 | 0.00 | 49 | 996.5 |
| 20260504015559 | 59 | 158 | 7.0 | 10.0 | 0.00 | 0.00 | 0.00 | 49 | 996.4 |
| 20260504015059 | 59 | 166 | 9.0 | 9.0 | 0.00 | 0.00 | 0.00 | 48 | 996.6 |
| 20260504014548 | 59 | 159 | 7.0 | 9.0 | 0.00 | 0.00 | 0.00 | 47 | 996.4 |
| 20260504014047 | 60 | 188 | 7.0 | 13.0 | 0.00 | 0.00 | 0.00 | 46 | 996.4 |
| 20260504013537 | 60 | 149 | 10.0 | 15.0 | 0.00 | 0.00 | 0.00 | 46 | 996.5 |
| 20260504013037 | 60 | 161 | 13.0 | 16.0 | 0.00 | 0.00 | 0.00 | 46 | 996.4 |
| 20260504012526 | 61 | 173 | 9.0 | 16.0 | 0.00 | 0.00 | 0.00 | 45 | 996.4 |
| 20260504012026 | 61 | 156 | 12.0 | 16.0 | 0.00 | 0.00 | 0.00 | 45 | 996.3 |
| 20260504011525 | 61 | 153 | 12.0 | 15.0 | 0.00 | 0.00 | 0.00 | 45 | 996.2 |
| 20260504011014 | 61 | 157 | 11.0 | 14.0 | 0.00 | 0.00 | 0.00 | 45 | 996.3 |
| 20260504010514 | 62 | 171 | 10.0 | 13.0 | 0.00 | 0.00 | 0.00 | 45 | 996.4 |
| 20260504010002 | 62 | 162 | 6.0 | 15.0 | 0.00 | 0.00 | 0.00 | 44 | 996.6 |
| 20260504005502 | 62 | 162 | 11.0 | 17.0 | 0.00 | 0.00 | 0.00 | 44 | 996.5 |
| 20260504005002 | 62 | 177 | 12.0 | 15.0 | 0.00 | 0.00 | 0.00 | 44 | 996.5 |
| 20260504004501 | 61 | 192 | 11.0 | 18.0 | 0.00 | 0.00 | 0.00 | 45 | 996.6 |
| 20260504004000 | 61 | 152 | 12.0 | 16.0 | 0.00 | 0.00 | 0.00 | 45 | 996.5 |
| 20260504003459 | 61 | 161 | 9.0 | 16.0 | 0.00 | 0.00 | 0.00 | 46 | 996.5 |
| 20260504002959 | 60 | 169 | 9.0 | 14.0 | 0.00 | 0.00 | 0.00 | 47 | 996.5 |
| 20260504002458 | 60 | 175 | 9.0 | 14.0 | 0.00 | 0.00 | 0.00 | 47 | 996.5 |
| 20260504001958 | 61 | 163 | 8.0 | 13.0 | 0.00 | 0.00 | 0.00 | 47 | 996.4 |
| 20260504001458 | 60 | 161 | 11.0 | 16.0 | 0.00 | 0.00 | 0.00 | 47 | 996.5 |
| 20260504000957 | 60 | 149 | 8.0 | 10.0 | 0.00 | 0.00 | 0.00 | 49 | 996.7 |
| 20260504000457 | 60 | 146 | 9.0 | 11.0 | 0.00 | 0.00 | 0.00 | 49 | 996.6 |
| 20260503235957 | 60 | 149 | 9.0 | 11.0 | 0.00 | 0.00 | 0.00 | 49 | 996.7 |
| 20260503235457 | 60 | 145 | 8.0 | 10.0 | 0.00 | 0.00 | 0.00 | 49 | 996.7 |
| 20260503234956 | 60 | 151 | 10.0 | 11.0 | 0.00 | 0.00 | 0.00 | 49 | 996.9 |
| 20260503234456 | 60 | 164 | 8.0 | 11.0 | 0.00 | 0.00 | 0.00 | 48 | 996.8 |
| 20260503233954 | 60 | 146 | 9.0 | 14.0 | 0.00 | 0.00 | 0.00 | 48 | 996.9 |
| 20260503233454 | 60 | 158 | 7.0 | 10.0 | 0.00 | 0.00 | 0.00 | 49 | 996.8 |
| 20260503232954 | 60 | 141 | 7.0 | 9.0 | 0.00 | 0.00 | 0.00 | 48 | 996.9 |
| 20260503232454 | 61 | 141 | 6.0 | 13.0 | 0.00 | 0.00 | 0.00 | 47 | 996.9 |
| 20260503231953 | 60 | 130 | 8.0 | 10.0 | 0.00 | 0.00 | 0.00 | 48 | 997.0 |
| 20260503231453 | 60 | 154 | 9.0 | 10.0 | 0.00 | 0.00 | 0.00 | 48 | 997.0 |
| 20260503230952 | 61 | 140 | 7.0 | 10.0 | 0.00 | 0.00 | 0.00 | 47 | 997.0 |
| 20260503230452 | 61 | 163 | 8.0 | 11.0 | 0.00 | 0.00 | 0.00 | 47 | 997.1 |
| 20260503225950 | 61 | 163 | 6.0 | 8.0 | 0.00 | 0.00 | 0.00 | 47 | 997.1 |
| 20260503225450 | 61 | 163 | 7.0 | 8.0 | 0.00 | 0.00 | 0.00 | 47 | 997.3 |
| 20260503224950 | 62 | 153 | 8.0 | 9.0 | 0.00 | 0.00 | 0.00 | 46 | 997.0 |
| 20260503224449 | 62 | 118 | 7.0 | 9.0 | 0.00 | 0.00 | 0.00 | 45 | 997.1 |
| 20260503223949 | 63 | 165 | 7.0 | 9.0 | 0.00 | 0.00 | 0.00 | 45 | 997.3 |
| 20260503223449 | 63 | 189 | 8.0 | 11.0 | 0.00 | 0.00 | 0.00 | 44 | 997.2 |
| 20260503222948 | 63 | 144 | 9.0 | 14.0 | 0.00 | 0.00 | 0.00 | 44 | 997.2 |
| 20260503222448 | 63 | 152 | 12.0 | 14.0 | 0.00 | 0.00 | 0.00 | 44 | 997.1 |
| 20260503221947 | 63 | 153 | 10.0 | 13.0 | 0.00 | 0.00 | 0.00 | 44 | 997.4 |
| 20260503221446 | 63 | 145 | 6.0 | 10.0 | 0.00 | 0.00 | 0.00 | 44 | 997.2 |
| 20260503220946 | 63 | 148 | 9.0 | 10.0 | 0.00 | 0.00 | 0.00 | 44 | 997.3 |
| 20260503220444 | 64 | 152 | 9.0 | 10.0 | 0.00 | 0.00 | 0.00 | 43 | 997.3 |
| 20260503215944 | 64 | 220 | 5.0 | 10.0 | 0.00 | 0.00 | 0.00 | 43 | 997.4 |
| 20260503215444 | 64 | 92 | 5.0 | 10.0 | 0.00 | 0.00 | 0.00 | 43 | 997.1 |
| 20260503214944 | 64 | 156 | 8.0 | 11.0 | 0.00 | 0.00 | 0.00 | 43 | 997.4 |
| 20260503214443 | 64 | 274 | 4.0 | 10.0 | 0.00 | 0.00 | 0.00 | 43 | 997.4 |
| 20260503213942 | 64 | 202 | 5.0 | 9.0 | 0.00 | 0.00 | 0.00 | 42 | 997.3 |
| 20260503213442 | 64 | 181 | 5.0 | 8.0 | 0.00 | 0.00 | 0.00 | 42 | 997.5 |
| 20260503212942 | 65 | 180 | 4.0 | 7.0 | 0.00 | 0.00 | 0.00 | 42 | 997.4 |
| 20260503212441 | 65 | 211 | 3.0 | 9.0 | 0.00 | 0.00 | 0.00 | 42 | 997.3 |
| 20260503211941 | 65 | 216 | 8.0 | 9.0 | 0.00 | 0.00 | 0.00 | 42 | 997.3 |
| 20260503210937 | 65 | 111 | 3.0 | 5.0 | 0.00 | 0.00 | 0.00 | 42 | 997.4 |
| 20260503210437 | 65 | 151 | 5.0 | 6.0 | 0.00 | 0.00 | 0.00 | 41 | 997.6 |
| 20260503205937 | 66 | 141 | 3.0 | 7.0 | 0.00 | 0.00 | 0.00 | 41 | 997.6 |
| 20260503205436 | 66 | 222 | 4.0 | 8.0 | 0.00 | 0.00 | 0.00 | 41 | 997.7 |
| 20260503204935 | 66 | 149 | 6.0 | 9.0 | 0.00 | 0.00 | 0.00 | 40 | 997.6 |
| 20260503204434 | 66 | 158 | 5.0 | 10.0 | 0.00 | 0.00 | 0.00 | 40 | 997.5 |
| 20260503203934 | 66 | 238 | 6.0 | 10.0 | 0.00 | 0.00 | 0.00 | 40 | 997.5 |
| 20260503203433 | 67 | 161 | 8.0 | 11.0 | 0.00 | 0.00 | 0.00 | 39 | 997.5 |
| 20260503202934 | 67 | 232 | 7.0 | 10.0 | 0.00 | 0.00 | 0.00 | 39 | 997.7 |
| 20260503202432 | 67 | 173 | 7.0 | 13.0 | 0.00 | 0.00 | 0.00 | 39 | 997.6 |
| 20260503201931 | 67 | 205 | 6.0 | 13.0 | 0.00 | 0.00 | 0.00 | 39 | 997.5 |
| 20260503201431 | 68 | 178 | 10.0 | 14.0 | 0.00 | 0.00 | 0.00 | 39 | 997.6 |
| 20260503200931 | 68 | 180 | 9.0 | 13.0 | 0.00 | 0.00 | 0.00 | 38 | 997.5 |
| 20260503200430 | 68 | 166 | 9.0 | 13.0 | 0.00 | 0.00 | 0.00 | 38 | 997.3 |
| 20260503195929 | 68 | 149 | 5.0 | 15.0 | 0.00 | 0.00 | 0.00 | 38 | 997.5 |
| 20260503195429 | 68 | 245 | 6.0 | 17.0 | 0.00 | 0.00 | 0.00 | 38 | 997.4 |
| 20260503194929 | 69 | 167 | 5.0 | 11.0 | 0.00 | 0.00 | 0.00 | 38 | 997.7 |
| 20260503194428 | 69 | 165 | 8.0 | 11.0 | 0.00 | 0.00 | 0.00 | 38 | 997.4 |
| 20260503193917 | 69 | 172 | 8.0 | 16.0 | 0.00 | 0.00 | 0.00 | 37 | 997.4 |
| 20260503193417 | 69 | 118 | 6.0 | 14.0 | 0.00 | 0.00 | 0.00 | 37 | 997.3 |
| 20260503192916 | 69 | 245 | 11.0 | 14.0 | 0.00 | 0.00 | 0.00 | 37 | 997.4 |
| 20260503192416 | 69 | 184 | 6.0 | 10.0 | 0.00 | 0.00 | 0.00 | 36 | 997.3 |
| 20260503191905 | 69 | 271 | 6.0 | 10.0 | 0.00 | 0.00 | 0.00 | 36 | 997.3 |
| 20260503191405 | 70 | 155 | 4.0 | 9.0 | 0.00 | 0.00 | 0.00 | 35 | 997.2 |
| 20260503190903 | 70 | 7 | 5.0 | 10.0 | 0.00 | 0.00 | 0.00 | 34 | 997.4 |
| 20260503190403 | 70 | 178 | 4.0 | 10.0 | 0.00 | 0.00 | 0.00 | 34 | 997.3 |
| 20260503185903 | 71 | 161 | 8.0 | 9.0 | 0.00 | 0.00 | 0.00 | 33 | 997.2 |
| 20260503185402 | 71 | 164 | 8.0 | 8.0 | 0.00 | 0.00 | 0.00 | 32 | 997.2 |
| 20260503184901 | 72 | 205 | 3.0 | 10.0 | 0.00 | 0.00 | 0.00 | 32 | 997.3 |
| 20260503184400 | 73 | 162 | 9.0 | 11.0 | 0.00 | 0.00 | 0.00 | 31 | 997.1 |
| 20260503183900 | 73 | 132 | 5.0 | 11.0 | 0.00 | 0.00 | 0.00 | 30 | 997.0 |
| 20260503183359 | 73 | 80 | 6.0 | 10.0 | 0.00 | 0.00 | 0.00 | 30 | 996.9 |
| 20260503182859 | 73 | 220 | 6.0 | 7.0 | 0.00 | 0.00 | 0.00 | 30 | 996.9 |
| 20260503182358 | 74 | 201 | 8.0 | 10.0 | 0.00 | 0.00 | 0.00 | 29 | 996.9 |
| 20260503181858 | 74 | 48 | 6.0 | 11.0 | 0.00 | 0.00 | 0.00 | 29 | 996.7 |
| 20260503181357 | 74 | 118 | 2.0 | 7.0 | 0.00 | 0.00 | 0.00 | 30 | 996.8 |
| 20260503180857 | 74 | 151 | 5.0 | 9.0 | 0.00 | 0.00 | 0.00 | 30 | 996.9 |
| 20260503180356 | 75 | 216 | 6.0 | 9.0 | 0.00 | 0.00 | 0.00 | 29 | 996.8 |
| 20260503175854 | 75 | 252 | 4.0 | 11.0 | 0.00 | 0.00 | 0.00 | 30 | 996.7 |
| 20260503175354 | 75 | 191 | 4.0 | 8.0 | 0.00 | 0.00 | 0.00 | 29 | 996.8 |
| 20260503174853 | 76 | 205 | 6.0 | 10.0 | 0.00 | 0.00 | 0.00 | 29 | 996.7 |
| 20260503174352 | 76 | 201 | 4.0 | 8.0 | 0.00 | 0.00 | 0.00 | 29 | 996.5 |
| 20260503173852 | 76 | 208 | 5.0 | 8.0 | 0.00 | 0.00 | 0.00 | 29 | 996.6 |
| 20260503173352 | 77 | 260 | 5.0 | 9.0 | 0.00 | 0.00 | 0.00 | 28 | 996.6 |
| 20260503172851 | 77 | 216 | 5.0 | 7.0 | 0.00 | 0.00 | 0.00 | 28 | 996.8 |
| 20260503172351 | 77 | 197 | 7.0 | 13.0 | 0.00 | 0.00 | 0.00 | 27 | 996.7 |
| 20260503171850 | 77 | 143 | 8.0 | 10.0 | 0.00 | 0.00 | 0.00 | 27 | 996.7 |
| 20260503171348 | 78 | 186 | 3.0 | 11.0 | 0.00 | 0.00 | 0.00 | 27 | 996.7 |
| 20260503170348 | 78 | 224 | 5.0 | 10.0 | 0.00 | 0.00 | 0.00 | 27 | 996.6 |
| 20260503150838 | 79 | 245 | 10.0 | 11.0 | 0.00 | 0.00 | 0.00 | 26 | 997.0 |
| 20260503150337 | 80 | 160 | 11.0 | 17.0 | 0.00 | 0.00 | 0.00 | 26 | 997.2 |
| 20260503131326 | 79 | 244 | 11.0 | 21.0 | 0.00 | 0.00 | 0.00 | 24 | 998.7 |
| 20260503130825 | 78 | 184 | 6.0 | 16.0 | 0.00 | 0.00 | 0.00 | 25 | 998.5 |
| 20260503130325 | 78 | 54 | 6.0 | 25.0 | 0.00 | 0.00 | 0.00 | 24 | 998.6 |
| 20260503110808 | 78 | 231 | 6.0 | 10.0 | 0.00 | 0.00 | 0.00 | 25 | 999.7 |
| 20260503110307 | 78 | 160 | 12.0 | 16.0 | 0.00 | 0.00 | 0.00 | 25 | 999.6 |
| 20260503090253 | 75 | 217 | 10.0 | 13.0 | 0.00 | 0.00 | 0.00 | 28 | 1000.5 |